Time,TemperatureF,DewpointF,PressureIn,WindDirection,WindDirectionDegrees,WindSpeedMPH,WindSpeedGustMPH,Humidity,HourlyPrecipIn,Conditions,Clouds,dailyrainin,SoftwareType,DateUTC
2013-01-09 00:03:00,36.0,29.0,30.39,SE,136,1.0,2.0,75,0.00,,,0.00,,2013-01-09 05:03:00,
2013-01-09 00:12:00,36.0,29.0,30.39,SE,136,1.0,2.0,75,0.00,,,0.00,,2013-01-09 05:12:00,
2013-01-09 00:22:00,36.0,29.0,30.39,SE,136,0.0,4.0,77,0.00,,,0.00,,2013-01-09 05:22:00,
2013-01-09 00:33:00,36.0,29.0,30.38,SSW,198,0.0,1.0,75,0.00,,,0.00,,2013-01-09 05:33:00,
2013-01-09 00:42:00,36.0,29.0,30.38,SSW,198,0.0,1.0,75,0.00,,,0.00,,2013-01-09 05:42:00,
2013-01-09 00:53:00,35.0,29.0,30.37,South,182,2.0,3.0,78,0.00,,,0.00,,2013-01-09 05:53:00,
2013-01-09 01:02:00,36.0,30.0,30.38,South,182,0.0,1.0,78,0.00,,,0.00,,2013-01-09 06:02:00,
2013-01-09 01:12:00,36.0,30.0,30.38,South,182,0.0,1.0,78,0.00,,,0.00,,2013-01-09 06:12:00,
2013-01-09 01:22:00,36.0,29.0,30.37,ESE,113,0.0,1.0,76,0.00,,,0.00,,2013-01-09 06:22:00,
2013-01-09 01:32:00,36.0,29.0,30.37,NNE,14,2.0,3.0,75,0.00,,,0.00,,2013-01-09 06:32:00,
2013-01-09 01:42:00,36.0,29.0,30.37,NNE,14,2.0,3.0,75,0.00,,,0.00,,2013-01-09 06:42:00,
2013-01-09 01:52:00,35.0,28.0,30.37,NNE,13,0.0,1.0,76,0.00,,,0.00,,2013-01-09 06:52:00,
2013-01-09 02:02:00,35.0,28.0,30.38,North,355,0.0,3.0,76,0.00,,,0.00,,2013-01-09 07:02:00,
2013-01-09 02:12:00,35.0,28.0,30.38,North,355,0.0,3.0,76,0.00,,,0.00,,2013-01-09 07:12:00,
2013-01-09 02:22:00,35.0,28.0,30.38,West,259,1.0,3.0,76,0.00,,,0.00,,2013-01-09 07:22:00,
2013-01-09 02:32:00,35.0,28.0,30.38,WSW,247,0.0,3.0,76,0.00,,,0.00,,2013-01-09 07:32:00,
2013-01-09 02:42:00,35.0,28.0,30.38,WSW,247,0.0,3.0,76,0.00,,,0.00,,2013-01-09 07:42:00,
2013-01-09 02:52:00,35.0,29.0,30.39,WSW,247,0.0,1.0,77,0.00,,,0.00,,2013-01-09 07:52:00,
2013-01-09 03:02:00,35.0,29.0,30.37,WSW,247,0.0,2.0,77,0.00,,,0.00,,2013-01-09 08:02:00,
2013-01-09 03:12:00,35.0,29.0,30.37,WSW,247,0.0,2.0,77,0.00,,,0.00,,2013-01-09 08:12:00,
2013-01-09 03:22:00,35.0,29.0,30.37,South,191,2.0,2.0,78,0.00,,,0.00,,2013-01-09 08:22:00,
2013-01-09 03:32:00,34.0,28.0,30.37,South,191,0.0,1.0,79,0.00,,,0.00,,2013-01-09 08:32:00,
2013-01-09 03:42:00,34.0,28.0,30.37,South,191,0.0,1.0,79,0.00,,,0.00,,2013-01-09 08:42:00,
2013-01-09 03:53:00,34.0,28.0,30.37,South,191,0.0,1.0,79,0.00,,,0.00,,2013-01-09 08:53:00,
2013-01-09 04:02:00,33.0,28.0,30.37,South,191,0.0,1.0,80,0.00,,,0.00,,2013-01-09 09:02:00,
2013-01-09 04:12:00,33.0,28.0,30.37,South,191,0.0,1.0,80,0.00,,,0.00,,2013-01-09 09:12:00,
2013-01-09 04:22:00,33.0,28.0,30.38,SSW,193,0.0,1.0,80,0.00,,,0.00,,2013-01-09 09:22:00,
2013-01-09 04:32:00,33.0,28.0,30.37,SSE,159,0.0,1.0,80,0.00,,,0.00,,2013-01-09 09:32:00,
2013-01-09 04:42:00,33.0,28.0,30.37,SSE,159,0.0,1.0,80,0.00,,,0.00,,2013-01-09 09:42:00,
2013-01-09 04:53:00,33.0,28.0,30.37,SSE,156,0.0,1.0,81,0.00,,,0.00,,2013-01-09 09:53:00,
2013-01-09 05:02:00,33.0,28.0,30.36,SSE,156,0.0,1.0,81,0.00,,,0.00,,2013-01-09 10:02:00,
2013-01-09 05:12:00,33.0,28.0,30.36,SSE,156,0.0,1.0,81,0.00,,,0.00,,2013-01-09 10:12:00,
2013-01-09 05:22:00,33.0,28.0,30.36,SSE,155,0.0,0.0,82,0.00,,,0.00,,2013-01-09 10:22:00,
2013-01-09 05:32:00,33.0,28.0,30.36,SSE,156,0.0,1.0,82,0.00,,,0.00,,2013-01-09 10:32:00,
2013-01-09 05:42:00,33.0,28.0,30.36,SSE,156,0.0,1.0,82,0.00,,,0.00,,2013-01-09 10:42:00,
2013-01-09 05:52:00,33.0,28.0,30.36,SSE,156,0.0,1.0,82,0.00,,,0.00,,2013-01-09 10:52:00,
2013-01-09 06:02:00,33.0,29.0,30.39,SSE,155,0.0,2.0,84,0.00,,,0.00,,2013-01-09 11:02:00,
2013-01-09 06:12:00,33.0,29.0,30.39,SSE,155,0.0,2.0,84,0.00,,,0.00,,2013-01-09 11:12:00,
2013-01-09 06:22:00,33.0,28.0,30.40,SSE,155,0.0,2.0,83,0.00,,,0.00,,2013-01-09 11:22:00,
2013-01-09 06:33:00,33.0,28.0,30.39,NE,38,0.0,2.0,83,0.00,,,0.00,,2013-01-09 11:33:00,
2013-01-09 06:42:00,33.0,28.0,30.39,NE,38,0.0,2.0,83,0.00,,,0.00,,2013-01-09 11:42:00,
2013-01-09 06:53:00,33.0,28.0,30.40,NE,37,0.0,1.0,83,0.00,,,0.00,,2013-01-09 11:53:00,
2013-01-09 07:03:00,33.0,28.0,30.40,North,360,0.0,1.0,83,0.00,,,0.00,,2013-01-09 12:03:00,
2013-01-09 07:12:00,33.0,28.0,30.40,North,360,0.0,1.0,83,0.00,,,0.00,,2013-01-09 12:12:00,
2013-01-09 07:23:00,32.0,27.0,30.40,North,355,2.0,2.0,83,0.00,,,0.00,,2013-01-09 12:23:00,
2013-01-09 07:33:00,33.0,28.0,30.40,North,355,0.0,2.0,83,0.00,,,0.00,,2013-01-09 12:33:00,
2013-01-09 07:43:00,33.0,28.0,30.40,North,355,0.0,2.0,83,0.00,,,0.00,,2013-01-09 12:43:00,
2013-01-09 07:53:00,33.0,28.0,30.40,North,355,0.0,2.0,83,0.00,,,0.00,,2013-01-09 12:53:00,
2013-01-09 08:03:00,33.0,28.0,30.41,North,355,0.0,2.0,83,0.00,,,0.00,,2013-01-09 13:03:00,
2013-01-09 08:12:00,33.0,28.0,30.41,North,355,0.0,2.0,83,0.00,,,0.00,,2013-01-09 13:12:00,
2013-01-09 08:23:00,34.0,29.0,30.41,NNE,15,0.0,3.0,82,0.00,,,0.00,,2013-01-09 13:23:00,
2013-01-09 08:33:00,34.0,29.0,30.42,North,360,0.0,2.0,82,0.00,,,0.00,,2013-01-09 13:33:00,
2013-01-09 08:43:00,34.0,29.0,30.42,North,360,0.0,2.0,82,0.00,,,0.00,,2013-01-09 13:43:00,
2013-01-09 08:53:00,36.0,31.0,30.43,North,360,0.0,2.0,81,0.00,,,0.00,,2013-01-09 13:53:00,
2013-01-09 09:03:00,36.0,30.0,30.42,North,360,0.0,2.0,78,0.00,,,0.00,,2013-01-09 14:03:00,
2013-01-09 09:12:00,36.0,30.0,30.42,North,360,0.0,2.0,78,0.00,,,0.00,,2013-01-09 14:12:00,
2013-01-09 09:23:00,37.0,30.0,30.43,SE,138,3.0,5.0,77,0.00,,,0.00,,2013-01-09 14:23:00,
2013-01-09 09:33:00,39.0,32.0,30.43,SSE,163,1.0,4.0,76,0.00,,,0.00,,2013-01-09 14:33:00,
2013-01-09 09:43:00,39.0,32.0,30.43,SSE,163,1.0,4.0,76,0.00,,,0.00,,2013-01-09 14:43:00,
2013-01-09 09:53:00,42.0,33.0,30.44,South,177,0.0,2.0,70,0.00,,,0.00,,2013-01-09 14:53:00,
2013-01-09 10:03:00,43.0,34.0,30.43,South,183,0.0,3.0,71,0.00,,,0.00,,2013-01-09 15:03:00,
2013-01-09 10:13:00,43.0,34.0,30.43,South,183,0.0,3.0,71,0.00,,,0.00,,2013-01-09 15:13:00,
2013-01-09 10:23:00,44.0,36.0,30.43,East,88,2.0,4.0,72,0.00,,,0.00,,2013-01-09 15:23:00,
2013-01-09 10:33:00,45.0,36.0,30.43,South,190,0.0,3.0,70,0.00,,,0.00,,2013-01-09 15:33:00,
2013-01-09 10:43:00,45.0,36.0,30.43,South,190,0.0,3.0,70,0.00,,,0.00,,2013-01-09 15:43:00,
2013-01-09 10:53:00,45.0,36.0,30.42,South,171,2.0,4.0,70,0.00,,,0.00,,2013-01-09 15:53:00,
2013-01-09 11:03:00,46.0,37.0,30.42,SSE,167,1.0,4.0,70,0.00,,,0.00,,2013-01-09 16:03:00,
2013-01-09 11:12:00,46.0,37.0,30.42,SSE,167,1.0,4.0,70,0.00,,,0.00,,2013-01-09 16:12:00,
2013-01-09 11:23:00,47.0,38.0,30.41,SSE,154,3.0,4.0,70,0.00,,,0.00,,2013-01-09 16:23:00,
2013-01-09 11:33:00,47.0,38.0,30.40,SSE,153,2.0,4.0,70,0.00,,,0.00,,2013-01-09 16:33:00,
2013-01-09 11:43:00,47.0,38.0,30.40,SSE,153,2.0,4.0,70,0.00,,,0.00,,2013-01-09 16:43:00,
2013-01-09 11:53:00,49.0,39.0,30.39,SSE,153,3.0,5.0,69,0.00,,,0.00,,2013-01-09 16:53:00,
2013-01-09 12:03:00,49.0,40.0,30.38,East,94,3.0,5.0,70,0.00,,,0.00,,2013-01-09 17:03:00,
2013-01-09 12:12:00,49.0,40.0,30.38,East,94,3.0,5.0,70,0.00,,,0.00,,2013-01-09 17:12:00,
2013-01-09 12:23:00,50.0,40.0,30.38,East,94,0.0,4.0,69,0.00,,,0.00,,2013-01-09 17:23:00,
2013-01-09 12:33:00,51.0,41.0,30.37,ESE,114,2.0,5.0,69,0.00,,,0.00,,2013-01-09 17:33:00,
2013-01-09 12:43:00,51.0,41.0,30.37,ESE,114,2.0,5.0,69,0.00,,,0.00,,2013-01-09 17:43:00,
2013-01-09 12:53:00,52.0,42.0,30.36,SE,124,3.0,5.0,68,0.00,,,0.00,,2013-01-09 17:53:00,
2013-01-09 13:03:00,54.0,43.0,30.36,SE,140,0.0,4.0,66,0.00,,,0.00,,2013-01-09 18:03:00,
2013-01-09 13:12:00,54.0,43.0,30.36,SE,140,0.0,4.0,66,0.00,,,0.00,,2013-01-09 18:12:00,
2013-01-09 13:24:00,55.0,43.0,30.36,SE,140,0.0,2.0,64,0.00,,,0.00,,2013-01-09 18:24:00,
2013-01-09 13:33:00,55.0,43.0,30.36,ESE,122,3.0,5.0,65,0.00,,,0.00,,2013-01-09 18:33:00,
2013-01-09 13:43:00,55.0,43.0,30.36,ESE,122,3.0,5.0,65,0.00,,,0.00,,2013-01-09 18:43:00,
2013-01-09 13:53:00,55.0,43.0,30.36,SW,226,1.0,5.0,65,0.00,,,0.00,,2013-01-09 18:53:00,
2013-01-09 14:03:00,56.0,44.0,30.36,WSW,254,0.0,2.0,64,0.00,,,0.00,,2013-01-09 19:03:00,
2013-01-09 14:13:00,56.0,44.0,30.36,WSW,254,0.0,2.0,64,0.00,,,0.00,,2013-01-09 19:13:00,
2013-01-09 14:23:00,56.0,43.0,30.36,WSW,254,0.0,2.0,62,0.00,,,0.00,,2013-01-09 19:23:00,
2013-01-09 14:33:00,57.0,44.0,30.36,WSW,254,0.0,3.0,62,0.00,,,0.00,,2013-01-09 19:33:00,
2013-01-09 14:43:00,57.0,44.0,30.36,WSW,254,0.0,3.0,62,0.00,,,0.00,,2013-01-09 19:43:00,
2013-01-09 14:53:00,58.0,45.0,30.37,NE,55,2.0,3.0,61,0.00,,,0.00,,2013-01-09 19:53:00,
2013-01-09 15:03:00,57.0,44.0,30.38,NNW,343,0.0,3.0,62,0.00,,,0.00,,2013-01-09 20:03:00,
2013-01-09 15:12:00,57.0,44.0,30.38,NNW,343,0.0,3.0,62,0.00,,,0.00,,2013-01-09 20:12:00,
2013-01-09 15:23:00,59.0,46.0,30.38,WSW,238,4.0,7.0,61,0.00,,,0.00,,2013-01-09 20:23:00,
2013-01-09 15:33:00,60.0,46.0,30.38,WSW,240,3.0,6.0,60,0.00,,,0.00,,2013-01-09 20:33:00,
2013-01-09 15:43:00,60.0,46.0,30.38,WSW,240,3.0,6.0,60,0.00,,,0.00,,2013-01-09 20:43:00,
2013-01-09 15:53:00,60.0,47.0,30.37,SSW,200,2.0,7.0,62,0.00,,,0.00,,2013-01-09 20:53:00,
2013-01-09 16:03:00,60.0,47.0,30.36,SW,219,3.0,6.0,62,0.00,,,0.00,,2013-01-09 21:03:00,
2013-01-09 16:13:00,60.0,47.0,30.36,SW,219,3.0,6.0,62,0.00,,,0.00,,2013-01-09 21:13:00,
2013-01-09 16:23:00,61.0,48.0,30.36,WSW,251,3.0,7.0,62,0.00,,,0.00,,2013-01-09 21:23:00,
2013-01-09 16:33:00,61.0,48.0,30.35,WSW,244,4.0,8.0,63,0.00,,,0.00,,2013-01-09 21:33:00,
2013-01-09 16:43:00,61.0,48.0,30.35,WSW,244,4.0,8.0,63,0.00,,,0.00,,2013-01-09 21:43:00,
2013-01-09 16:53:00,61.0,49.0,30.36,WSW,240,3.0,7.0,64,0.00,,,0.00,,2013-01-09 21:53:00,
2013-01-09 17:03:00,60.0,48.0,30.36,WSW,250,5.0,11.0,65,0.00,,,0.00,,2013-01-09 22:03:00,
2013-01-09 17:12:00,60.0,48.0,30.36,WSW,250,5.0,11.0,65,0.00,,,0.00,,2013-01-09 22:12:00,
2013-01-09 17:23:00,59.0,48.0,30.36,WNW,290,3.0,8.0,66,0.00,,,0.00,,2013-01-09 22:23:00,
2013-01-09 17:33:00,59.0,48.0,30.36,SSW,202,1.0,9.0,67,0.00,,,0.00,,2013-01-09 22:33:00,
2013-01-09 17:43:00,59.0,48.0,30.36,SSW,202,1.0,9.0,67,0.00,,,0.00,,2013-01-09 22:43:00,
2013-01-09 17:53:00,58.0,48.0,30.36,WNW,292,4.0,9.0,69,0.00,,,0.00,,2013-01-09 22:53:00,
2013-01-09 18:03:00,58.0,48.0,30.37,North,360,2.0,7.0,69,0.00,,,0.00,,2013-01-09 23:03:00,
2013-01-09 18:13:00,58.0,48.0,30.37,North,360,2.0,7.0,69,0.00,,,0.00,,2013-01-09 23:13:00,
2013-01-09 18:23:00,58.0,48.0,30.37,West,273,3.0,6.0,69,0.00,,,0.00,,2013-01-09 23:23:00,
2013-01-09 18:33:00,57.0,47.0,30.37,West,279,3.0,5.0,70,0.00,,,0.00,,2013-01-09 23:33:00,
2013-01-09 18:43:00,57.0,47.0,30.37,West,279,3.0,5.0,70,0.00,,,0.00,,2013-01-09 23:43:00,
2013-01-09 18:53:00,58.0,48.0,30.37,WSW,253,4.0,8.0,70,0.00,,,0.00,,2013-01-09 23:53:00,
2013-01-09 19:03:00,57.0,48.0,30.38,West,263,3.0,7.0,71,0.00,,,0.00,,2013-01-10 00:03:00,
2013-01-09 19:12:00,57.0,48.0,30.38,West,263,3.0,7.0,71,0.00,,,0.00,,2013-01-10 00:12:00,
2013-01-09 19:22:00,56.0,47.0,30.39,West,263,2.0,4.0,73,0.00,,,0.00,,2013-01-10 00:22:00,
2013-01-09 19:32:00,57.0,48.0,30.39,West,266,3.0,7.0,73,0.00,,,0.00,,2013-01-10 00:32:00,
2013-01-09 19:42:00,57.0,48.0,30.39,West,266,3.0,7.0,73,0.00,,,0.00,,2013-01-10 00:42:00,
2013-01-09 19:53:00,56.0,48.0,30.39,WSW,250,2.0,5.0,74,0.00,,,0.00,,2013-01-10 00:53:00,
2013-01-09 20:02:00,55.0,48.0,30.39,WSW,247,3.0,5.0,76,0.00,,,0.00,,2013-01-10 01:02:00,
2013-01-09 20:12:00,55.0,48.0,30.39,WSW,247,3.0,5.0,76,0.00,,,0.00,,2013-01-10 01:12:00,
2013-01-09 20:22:00,56.0,48.0,30.39,West,261,3.0,5.0,75,0.00,,,0.00,,2013-01-10 01:22:00,
2013-01-09 20:33:00,56.0,49.0,30.40,NW,317,1.0,6.0,76,0.00,,,0.00,,2013-01-10 01:33:00,
2013-01-09 20:43:00,56.0,49.0,30.40,NW,317,1.0,6.0,76,0.00,,,0.00,,2013-01-10 01:43:00,
2013-01-09 20:53:00,56.0,49.0,30.40,West,259,5.0,7.0,76,0.00,,,0.00,,2013-01-10 01:53:00,
2013-01-09 21:03:00,57.0,49.0,30.40,West,260,4.0,9.0,75,0.00,,,0.00,,2013-01-10 02:03:00,
2013-01-09 21:12:00,57.0,49.0,30.40,West,260,4.0,9.0,75,0.00,,,0.00,,2013-01-10 02:12:00,
2013-01-09 21:22:00,57.0,48.0,30.40,West,259,4.0,8.0,73,0.00,,,0.00,,2013-01-10 02:22:00,
2013-01-09 21:32:00,57.0,49.0,30.40,West,276,1.0,5.0,74,0.00,,,0.00,,2013-01-10 02:32:00,
2013-01-09 21:43:00,57.0,49.0,30.40,West,276,1.0,5.0,74,0.00,,,0.00,,2013-01-10 02:43:00,
2013-01-09 21:53:00,57.0,49.0,30.40,West,276,1.0,5.0,74,0.00,,,0.00,,2013-01-10 02:53:00,
2013-01-09 22:03:00,56.0,48.0,30.40,ENE,76,4.0,6.0,74,0.00,,,0.00,,2013-01-10 03:03:00,
2013-01-09 22:12:00,56.0,48.0,30.40,ENE,76,4.0,6.0,74,0.00,,,0.00,,2013-01-10 03:12:00,
2013-01-09 22:22:00,57.0,48.0,30.41,SE,124,4.0,11.0,73,0.00,,,0.00,,2013-01-10 03:22:00,
2013-01-09 22:33:00,57.0,48.0,30.41,NNW,338,1.0,7.0,72,0.00,,,0.00,,2013-01-10 03:33:00,
2013-01-09 22:42:00,57.0,48.0,30.41,NNW,338,1.0,7.0,72,0.00,,,0.00,,2013-01-10 03:42:00,
2013-01-09 22:53:00,57.0,48.0,30.42,WNW,284,3.0,6.0,71,0.00,,,0.00,,2013-01-10 03:53:00,
2013-01-09 23:02:00,57.0,48.0,30.43,West,265,1.0,3.0,71,0.00,,,0.00,,2013-01-10 04:02:00,
2013-01-09 23:12:00,57.0,48.0,30.43,West,265,1.0,3.0,71,0.00,,,0.00,,2013-01-10 04:12:00,
2013-01-09 23:22:00,56.0,47.0,30.43,West,264,1.0,3.0,71,0.00,,,0.00,,2013-01-10 04:22:00,
2013-01-09 23:32:00,55.0,46.0,30.43,NW,304,2.0,4.0,71,0.00,,,0.00,,2013-01-10 04:32:00,
2013-01-09 23:43:00,55.0,46.0,30.43,NW,304,2.0,4.0,71,0.00,,,0.00,,2013-01-10 04:43:00,
2013-01-09 23:53:00,55.0,45.0,30.43,West,277,3.0,6.0,70,0.00,,,0.00,,2013-01-10 04:53:00,